Date String (YYYY-MM-DD hh:mm:ss) UTC,Instrument flags,Ambient pressure (hPa),Sample flow (lpm),Bypass flow (lpm),Sample temperature (°C),Ambient temperature (°C),ASC tube jacket temperature (°C),LED temperature (°C),Box temperature (°C),Sample RH (%),Span deviation,Mass concentration (μg/m³),Mass concentration (μg/m³),Mass concentration (μg/m³)
DateTimeUTC,F1_M11,P_M11,Q1_M11,Q2_M11,T1_M11,T2_M11,T3_M11,T4_M11,T5_M11,U1_M11,ZSPAN_M11,X0_M11,X2_M11,X1_M11
2023-04-04 18:00:00,,0815.6,5.00,0.00,23.3,23.2,00.0,31.5,25.0,12.6,0000.0,0001.77,0001.30,0001.07
2023-04-04 18:01:00,,0815.6,5.01,0.00,23.3,22.8,00.0,31.6,24.9,12.6,0000.0,0002.38,0001.34,0001.10
2023-04-04 18:02:00,,0815.6,4.99,0.00,23.2,22.5,00.0,31.6,24.8,12.6,0000.0,0003.56,0001.41,0001.13
2023-04-04 18:03:00,,0815.6,5.00,0.00,23.2,22.2,00.0,31.6,24.6,12.8,0000.0,0003.66,0001.43,0001.15
2023-04-04 18:04:00,,0815.6,5.01,0.00,23.1,21.9,00.0,31.6,24.6,12.7,0000.0,0003.79,0001.45,0001.16
2023-04-04 18:05:00,,0815.6,5.00,0.00,23.1,21.8,00.0,31.5,24.6,12.4,0000.0,0004.43,0001.49,0001.21
2023-04-04 18:06:00,,0815.6,5.00,0.00,23.2,22.5,00.0,31.5,24.9,12.2,0000.0,0004.51,0001.55,0001.28
2023-04-04 18:07:00,,0815.6,5.01,0.00,23.3,23.5,00.0,31.5,25.3,12.2,0000.0,0004.58,0001.61,0001.35
2023-04-04 18:08:00,,0815.7,4.99,0.00,23.5,24.1,00.0,31.5,25.4,12.2,0000.0,0004.70,0001.69,0001.42
2023-04-04 18:09:00,,0815.7,4.99,0.00,23.5,23.8,00.0,31.6,25.2,12.2,0000.0,0004.80,0001.77,0001.48
2023-04-04 18:10:00,,0815.7,5.02,0.00,23.4,23.4,00.0,31.7,25.0,12.3,0000.0,0004.92,0001.86,0001.53
2023-04-04 18:11:00,,0815.7,4.99,0.00,23.4,23.0,00.0,31.7,24.9,12.4,0000.0,0004.97,0001.89,0001.55
2023-04-04 18:12:00,,0815.7,4.99,0.00,23.3,22.6,00.0,31.7,24.8,12.1,0000.0,0004.35,0001.82,0001.50
2023-04-04 18:13:00,,0815.7,5.00,0.00,23.3,22.2,00.0,31.7,24.7,11.8,0000.0,0005.72,0001.74,0001.44
2023-04-04 18:14:00,,0815.8,5.00,0.00,23.2,22.0,00.0,31.7,24.7,11.6,0000.0,0005.57,0001.67,0001.39
2023-04-04 18:15:00,,0815.8,5.01,0.00,23.3,22.6,00.0,31.6,25.0,11.6,0000.0,0005.43,0001.58,0001.33
2023-04-04 18:16:00,,0815.9,5.00,0.00,23.5,23.6,00.0,31.6,25.4,11.6,0000.0,0004.69,0001.48,0001.23
2023-04-04 18:17:00,,0815.9,5.00,0.00,23.5,23.7,00.0,31.7,25.3,11.5,0000.0,0004.57,0001.36,0001.12
2023-04-04 18:18:00,,0815.9,5.00,0.00,23.5,23.4,00.0,31.7,25.1,11.5,0000.0,0004.66,0001.23,0001.00
2023-04-04 18:19:00,,0815.9,5.01,0.00,23.5,23.0,00.0,31.8,25.0,11.4,0000.0,0004.53,0001.09,0000.88
2023-04-04 18:20:00,,0815.9,5.01,0.00,23.4,22.7,00.0,31.8,24.9,11.4,0000.0,0004.38,0000.96,0000.77
2023-04-04 18:21:00,,0815.8,5.00,0.00,23.4,22.4,00.0,31.8,24.8,11.4,0000.0,0004.23,0000.83,0000.68
2023-04-04 18:22:00,,0815.9,4.99,0.00,23.3,22.1,00.0,31.8,24.8,11.5,0000.0,0004.15,0000.76,0000.62
2023-04-04 18:23:00,,0815.9,5.00,0.00,23.3,21.8,00.0,31.8,24.7,11.6,0000.0,0004.56,0000.79,0000.65
2023-04-04 18:24:00,,0815.9,5.01,0.00,23.3,21.7,00.0,31.7,24.7,11.4,0000.0,0002.81,0000.83,0000.69
2023-04-04 18:25:00,,0815.9,5.01,0.00,23.3,22.3,00.0,31.7,25.0,11.4,0000.0,0002.72,0000.87,0000.73
2023-04-04 18:26:00,,0816.0,5.01,0.00,23.5,23.5,00.0,31.7,25.4,11.5,0000.0,0002.83,0000.94,0000.78
2023-04-04 18:27:00,,0816.0,5.00,0.00,23.6,23.7,00.0,31.7,25.4,11.6,0000.0,0002.85,0000.99,0000.83
2023-04-04 18:28:00,,0816.0,4.99,0.00,23.5,23.4,00.0,31.8,25.2,11.7,0000.0,0002.85,0001.02,0000.88
2023-04-04 18:29:00,,0815.9,5.02,0.00,23.5,23.1,00.0,31.8,25.1,11.6,0000.0,0002.74,0001.10,0000.93
2023-04-04 18:30:00,,0815.8,5.00,0.00,23.5,22.8,00.0,31.8,25.0,11.6,0000.0,0002.74,0001.18,0001.00
2023-04-04 18:31:00,,0815.8,5.00,0.00,23.4,22.5,00.0,31.8,24.9,11.6,0000.0,0002.82,0001.25,0001.07
2023-04-04 18:32:00,,0815.8,4.99,0.00,23.4,22.2,00.0,31.8,24.8,11.5,0000.0,0002.91,0001.32,0001.13
2023-04-04 18:33:00,,0815.9,5.01,0.00,23.4,22.0,00.0,31.8,24.8,11.6,0000.0,0003.01,0001.38,0001.18
2023-04-04 18:34:00,,0815.9,5.01,0.00,23.3,22.0,00.0,31.8,24.8,11.5,0000.0,0003.08,0001.43,0001.22
2023-04-04 18:35:00,,0815.9,5.00,0.00,23.5,23.0,00.0,31.7,25.3,11.6,0000.0,0002.08,0001.47,0001.25
2023-04-04 18:36:00,,0815.9,4.99,0.00,23.6,24.0,00.0,31.7,25.5,11.5,0000.0,0002.24,0001.49,0001.27
2023-04-04 18:37:00,,0815.8,4.99,0.00,23.7,23.8,00.0,31.8,25.4,11.4,0000.0,0002.54,0001.50,0001.28
2023-04-04 18:38:00,,0815.9,5.01,0.00,23.6,23.4,00.0,31.9,25.2,11.7,0000.0,0003.81,0001.52,0001.30
2023-04-04 18:39:00,,0815.9,5.01,0.00,23.6,23.0,00.0,31.9,25.1,11.9,0000.0,0005.42,0001.56,0001.33
2023-04-04 18:40:00,,0815.9,5.01,0.00,23.5,22.6,00.0,31.9,25.0,11.8,0000.0,0005.42,0001.57,0001.34
2023-04-04 18:41:00,,0815.9,4.99,0.00,23.5,22.3,00.0,31.9,24.9,11.9,0000.0,0005.40,0001.57,0001.35
2023-04-04 18:42:00,,0815.9,4.99,0.00,23.4,22.2,00.0,31.9,25.0,11.8,0000.0,0005.37,0001.55,0001.34
2023-04-04 18:43:00,,0815.9,5.01,0.00,23.5,23.1,00.0,31.8,25.4,11.3,0000.0,0005.28,0001.51,0001.32
2023-04-04 18:44:00,,0815.9,5.00,0.00,23.7,23.9,00.0,31.8,25.6,10.8,0000.0,0005.23,0001.48,0001.30
2023-04-04 18:45:00,,0815.8,4.98,0.00,23.7,23.8,00.0,31.9,25.5,10.9,0000.0,0005.16,0001.46,0001.27
2023-04-04 18:46:00,,0815.9,5.00,0.00,23.7,23.5,00.0,31.9,25.4,11.1,0000.0,0005.22,0001.42,0001.24
2023-04-04 18:47:00,,0815.9,5.01,0.00,23.7,23.1,00.0,32.0,25.2,11.1,0000.0,0006.34,0001.40,0001.22
2023-04-04 18:48:00,,0815.8,5.00,0.00,23.6,22.7,00.0,32.0,25.0,11.1,0000.0,0005.88,0001.35,0001.19
2023-04-04 18:49:00,,0815.8,4.99,0.00,23.6,22.4,00.0,31.9,25.0,11.2,0000.0,0004.88,0001.30,0001.16
2023-04-04 18:50:00,,0815.8,5.01,0.00,23.6,22.8,00.0,31.9,25.3,11.2,0000.0,0002.94,0001.26,0001.12
2023-04-04 18:51:00,,0815.8,5.00,0.00,23.7,23.9,00.0,31.9,25.7,11.2,0000.0,0002.98,0001.25,0001.10
2023-04-04 18:52:00,,0815.8,4.99,0.00,23.8,24.2,00.0,32.0,25.7,10.8,0000.0,0002.92,0001.21,0001.07
2023-04-04 18:53:00,,0815.8,5.00,0.00,23.8,23.8,00.0,32.0,25.5,10.8,0000.0,0002.89,0001.19,0001.05
2023-04-04 18:54:00,,0815.7,5.01,0.00,23.8,23.5,00.0,32.1,25.4,10.9,0000.0,0002.89,0001.18,0001.04
2023-04-04 18:55:00,,0815.7,5.00,0.00,23.8,23.1,00.0,32.1,25.2,10.8,0000.0,0002.85,0001.16,0001.03
2023-04-04 18:56:00,,0815.7,4.99,0.00,23.7,22.8,00.0,32.1,25.2,11.3,0000.0,0002.90,0001.14,0001.04
2023-04-04 18:57:00,,0815.7,5.01,0.00,23.7,22.5,00.0,32.1,25.1,11.3,0000.0,0004.21,0001.13,0001.05
2023-04-04 18:58:00,,0815.7,4.99,0.00,23.6,22.3,00.0,32.1,25.1,11.0,0000.0,0003.00,0001.12,0001.04
2023-04-04 18:59:00,,0815.8,5.01,0.00,23.7,22.7,00.0,32.0,25.3,10.7,0000.0,0003.10,0001.15,0001.04
